QPF
0.02 0.01 0.01 0.02 0.02 0.03 0.02 0.02 0.01 0.01 0.01 0.02 0.03 0.04 0.05 0.06 0.10 0.09 0.04 0.04 0.06 0.07 0.06 0.06 0.07 0.07 0.07 0.07 0.07 0.06 0.06 0.05 0.07 0.07 0.10 0.11 0.09 0.10 0.12 0.19 0.16 0.10 0.07
0.01 0.01 0.01 0.03 0.03 0.02 0.02 0.01 0.01 0.01 0.01 0.02 0.03 0.04 0.06 0.06 0.07 0.07 0.03 0.04 0.06 0.07 0.08 0.08 0.07 0.07 0.08 0.10 0.10 0.07 0.08 0.06 0.07 0.08 0.07 0.07 0.08 0.09 0.14 0.15 0.12 0.08 0.07
0.01 0.01 0.02 0.02 0.02 0.02 0.02 0.01 0.01 0.01 0.02 0.02 0.03 0.05 0.08 0.07 0.07 0.04 0.03 0.05 0.06 0.07 0.08 0.08 0.08 0.08 0.09 0.12 0.13 0.09 0.09 0.08 0.07 0.08 0.08 0.09 0.09 0.11 0.13 0.11 0.12 0.09 0.08
0.00 0.00 0.01 0.02 0.02 0.02 0.03 0.02 0.02 0.02 0.03 0.03 0.03 0.05 0.06 0.07 0.07 0.05 0.05 0.07 0.11 0.09 0.07 0.07 0.10 0.12 0.11 0.15 0.14 0.12 0.09 0.07 0.08 0.08 0.09 0.10 0.11 0.10 0.09 0.09 0.11 0.10 0.10
0.00 0.00 0.01 0.02 0.02 0.02 0.02 0.02 0.01 0.01 0.02 0.02 0.02 0.03 0.04 0.06 0.06 0.04 0.05 0.06 0.08 0.09 0.08 0.09 0.15 0.18 0.16 0.17 0.16 0.13 0.11 0.09 0.07 0.10 0.12 0.11 0.12 0.12 0.09 0.08 0.09 0.10 0.11
0.00 0.00 0.01 0.01 0.01 0.02 0.02 0.02 0.02 0.01 0.01 0.02 0.02 0.02 0.03 0.05 0.07 0.06 0.04 0.04 0.05 0.06 0.08 0.12 0.18 0.22 0.20 0.18 0.18 0.14 0.12 0.10 0.08 0.11 0.19 0.19 0.16 0.13 0.09 0.08 0.09 0.10 0.10
0.00 0.00 0.00 0.01 0.01 0.02 0.03 0.02 0.02 0.01 0.02 0.03 0.03 0.02 0.02 0.04 0.04 0.06 0.06 0.04 0.03 0.04 0.06 0.10 0.15 0.18 0.21 0.18 0.18 0.14 0.11 0.11 0.09 0.11 0.17 0.19 0.18 0.14 0.12 0.12 0.12 0.11 0.10
0.00 0.00 0.00 0.01 0.01 0.01 0.01 0.01 0.01 0.01 0.01 0.02 0.02 0.02 0.01 0.02 0.02 0.03 0.07 0.05 0.05 0.05 0.05 0.06 0.10 0.13 0.17 0.19 0.19 0.16 0.14 0.12 0.10 0.10 0.12 0.15 0.14 0.12 0.12 0.13 0.12 0.10 0.08
0.00 0.00 0.00 0.01 0.01 0.01 0.01 0.01 0.01 0.00 0.00 0.01 0.01 0.01 0.02 0.01 0.02 0.03 0.05 0.05 0.05 0.06 0.06 0.05 0.06 0.09 0.13 0.19 0.22 0.18 0.17 0.18 0.13 0.11 0.12 0.15 0.15 0.14 0.12 0.11 0.10 0.08 0.07
0.01 0.01 0.01 0.02 0.02 0.01 0.01 0.01 0.00 0.00 0.00 0.00 0.00 0.00 0.01 0.01 0.02 0.03 0.04 0.04 0.04 0.06 0.07 0.07 0.05 0.07 0.12 0.18 0.20 0.18 0.17 0.17 0.16 0.16 0.15 0.15 0.14 0.14 0.12 0.10 0.09 0.08 0.07
0.01 0.01 0.01 0.01 0.02 0.01 0.00 0.00 0.01 0.00 0.01 0.01 0.01 0.00 0.01 0.02 0.03 0.04 0.03 0.04 0.06 0.10 0.08 0.07 0.06 0.07 0.10 0.14 0.15 0.14 0.15 0.17 0.16 0.14 0.14 0.13 0.11 0.12 0.12 0.09 0.08 0.08 0.09
0.01 0.00 0.00 0.01 0.02 0.01 0.00 0.01 0.02 0.01 0.01 0.01 0.01 0.01 0.01 0.02 0.03 0.03 0.04 0.03 0.05 0.06 0.05 0.07 0.08 0.07 0.06 0.08 0.10 0.12 0.11 0.13 0.14 0.12 0.11 0.10 0.10 0.11 0.10 0.10 0.09 0.08 0.09
0.00 0.00 0.00 0.00 0.01 0.01 0.01 0.01 0.01 0.01 0.01 0.01 0.01 0.02 0.02 0.03 0.04 0.04 0.04 0.04 0.05 0.05 0.06 0.07 0.10 0.10 0.07 0.06 0.06 0.07 0.06 0.07 0.09 0.08 0.07 0.07 0.09 0.10 0.10 0.11 0.10 0.07 0.08
0.00 0.00 0.00 0.01 0.01 0.02 0.01 0.01 0.01 0.01 0.01 0.02 0.02 0.02 0.02 0.03 0.03 0.04 0.04 0.04 0.05 0.05 0.05 0.07 0.08 0.10 0.09 0.06 0.05 0.06 0.05 0.05 0.06 0.05 0.05 0.06 0.07 0.08 0.09 0.09 0.09 0.07 0.06
0.00 0.00 0.00 0.01 0.01 0.02 0.02 0.01 0.00 0.00 0.01 0.01 0.02 0.02 0.02 0.02 0.03 0.02 0.03 0.03 0.04 0.04 0.03 0.03 0.04 0.08 0.09 0.07 0.06 0.05 0.05 0.05 0.05 0.04 0.04 0.05 0.07 0.07 0.07 0.06 0.07 0.07 0.08
0.00 0.00 0.00 0.01 0.00 0.01 0.01 0.02 0.01 0.00 0.01 0.00 0.01 0.02 0.02 0.02 0.03 0.02 0.02 0.03 0.03 0.02 0.03 0.03 0.04 0.05 0.08 0.07 0.06 0.05 0.05 0.05 0.05 0.05 0.04 0.08 0.10 0.09 0.07 0.07 0.07 0.07 0.08
0.00 0.00 0.00 0.00 0.00 0.00 0.01 0.01 0.01 0.01 0.01 0.01 0.01 0.02 0.03 0.02 0.03 0.03 0.03 0.03 0.03 0.03 0.03 0.03 0.04 0.05 0.06 0.07 0.07 0.05 0.05 0.05 0.04 0.04 0.05 0.11 0.14 0.12 0.10 0.09 0.08 0.07 0.07
0.00 0.00 0.00 0.01 0.00 0.01 0.01 0.02 0.02 0.02 0.02 0.02 0.02 0.02 0.03 0.03 0.03 0.03 0.03 0.02 0.03 0.02 0.02 0.03 0.03 0.03 0.05 0.07 0.09 0.06 0.05 0.05 0.04 0.05 0.06 0.10 0.15 0.13 0.12 0.10 0.09 0.06 0.04
0.01 0.00 0.01 0.01 0.02 0.02 0.02 0.02 0.01 0.01 0.02 0.02 0.02 0.03 0.03 0.02 0.03 0.03 0.03 0.03 0.02 0.02 0.02 0.02 0.03 0.05 0.07 0.09 0.09 0.09 0.08 0.08 0.08 0.08 0.08 0.10 0.14 0.14 0.11 0.08 0.07 0.04 0.04
0.01 0.01 0.02 0.02 0.04 0.03 0.02 0.02 0.01 0.02 0.02 0.03 0.03 0.04 0.03 0.03 0.03 0.03 0.03 0.03 0.02 0.02 0.03 0.04 0.06 0.07 0.09 0.13 0.12 0.11 0.09 0.10 0.10 0.09 0.09 0.10 0.12 0.12 0.10 0.09 0.07 0.05 0.04
0.01 0.01 0.02 0.03 0.05 0.04 0.02 0.02 0.02 0.02 0.03 0.03 0.03 0.04 0.03 0.02 0.03 0.03 0.02 0.03 0.03 0.02 0.03 0.05 0.07 0.08 0.10 0.12 0.14 0.11 0.08 0.07 0.09 0.10 0.07 0.08 0.11 0.12 0.11 0.10 0.08 0.07 0.07
0.02 0.03 0.04 0.04 0.03 0.03 0.02 0.01 0.01 0.02 0.03 0.04 0.05 0.05 0.04 0.04 0.03 0.03 0.03 0.03 0.03 0.04 0.04 0.06 0.09 0.10 0.10 0.08 0.09 0.09 0.10 0.10 0.13 0.14 0.10 0.10 0.12 0.10 0.09 0.08 0.08 0.08 0.08
0.02 0.03 0.05 0.04 0.03 0.03 0.02 0.01 0.01 0.01 0.02 0.04 0.05 0.05 0.05 0.06 0.05 0.05 0.05 0.05 0.05 0.05 0.06 0.06 0.08 0.09 0.11 0.10 0.09 0.09 0.11 0.13 0.15 0.14 0.12 0.11 0.09 0.07 0.05 0.06 0.06 0.07 0.07
0.02 0.03 0.04 0.05 0.04 0.03 0.02 0.02 0.02 0.02 0.04 0.06 0.07 0.07 0.07 0.07 0.07 0.06 0.05 0.05 0.05 0.05 0.06 0.07 0.08 0.09 0.10 0.11 0.10 0.10 0.12 0.13 0.11 0.12 0.12 0.09 0.07 0.05 0.04 0.05 0.05 0.05 0.05
0.01 0.01 0.01 0.03 0.04 0.02 0.02 0.02 0.03 0.02 0.05 0.06 0.05 0.05 0.06 0.07 0.09 0.09 0.08 0.08 0.08 0.06 0.05 0.07 0.11 0.14 0.11 0.09 0.10 0.12 0.12 0.09 0.08 0.07 0.08 0.07 0.05 0.03 0.02 0.03 0.04 0.05 0.06
0.00 0.01 0.01 0.02 0.03 0.03 0.02 0.02 0.02 0.03 0.04 0.05 0.06 0.06 0.06 0.08 0.09 0.10 0.11 0.11 0.11 0.09 0.08 0.07 0.09 0.11 0.11 0.11 0.11 0.10 0.09 0.08 0.05 0.04 0.04 0.04 0.04 0.03 0.01 0.01 0.01 0.02 0.04
MSLP
1008.45 1008.12 1007.99 1008.04 1008.21 1008.39 1008.47 1008.38 1008.06 1007.56 1006.93 1006.29 1005.73 1005.35 1005.19 1005.24 1005.46 1005.80 1006.19 1006.57 1006.93 1007.26 1007.60 1007.95 1008.33 1008.76 1009.21 1009.67 1010.11 1010.52 1010.89 1011.24 1011.58 1011.93 1012.30 1012.70 1013.11 1013.51 1013.89 1014.23 1014.52 1014.78 1015.02
1008.86 1008.54 1008.38 1008.38 1008.48 1008.59 1008.61 1008.46 1008.12 1007.60 1006.96 1006.32 1005.78 1005.40 1005.23 1005.27 1005.48 1005.79 1006.14 1006.50 1006.83 1007.16 1007.48 1007.84 1008.24 1008.69 1009.18 1009.67 1010.14 1010.57 1010.96 1011.31 1011.65 1012.00 1012.36 1012.76 1013.16 1013.58 1013.97 1014.33 1014.65 1014.94 1015.20
1009.11 1008.83 1008.68 1008.67 1008.74 1008.82 1008.80 1008.62 1008.26 1007.74 1007.12 1006.50 1005.97 1005.61 1005.43 1005.45 1005.61 1005.87 1006.17 1006.48 1006.77 1007.06 1007.37 1007.73 1008.14 1008.62 1009.14 1009.67 1010.18 1010.64 1011.05 1011.42 1011.77 1012.11 1012.47 1012.85 1013.26 1013.68 1014.09 1014.48 1014.84 1015.16 1015.45
1009.16 1008.94 1008.84 1008.86 1008.94 1009.01 1008.98 1008.80 1008.45 1007.95 1007.36 1006.77 1006.26 1005.91 1005.73 1005.72 1005.84 1006.04 1006.28 1006.53 1006.77 1007.02 1007.30 1007.65 1008.08 1008.58 1009.13 1009.70 1010.24 1010.74 1011.18 1011.56 1011.91 1012.25 1012.60 1012.98 1013.39 1013.83 1014.27 1014.69 1015.09 1015.46 1015.79
1009.03 1008.88 1008.85 1008.91 1009.03 1009.12 1009.11 1008.94 1008.61 1008.14 1007.59 1007.04 1006.57 1006.23 1006.06 1006.04 1006.13 1006.29 1006.48 1006.67 1006.86 1007.08 1007.34 1007.67 1008.10 1008.61 1009.18 1009.78 1010.35 1010.87 1011.33 1011.72 1012.07 1012.41 1012.76 1013.13 1013.55 1014.00 1014.46 1014.93 1015.38 1015.80 1016.18
1008.80 1008.71 1008.73 1008.85 1009.01 1009.13 1009.15 1009.01 1008.71 1008.27 1007.76 1007.25 1006.82 1006.53 1006.38 1006.37 1006.45 1006.60 1006.76 1006.92 1007.08 1007.26 1007.50 1007.82 1008.24 1008.75 1009.33 1009.93 1010.51 1011.04 1011.51 1011.91 1012.25 1012.58 1012.92 1013.29 1013.71 1014.17 1014.66 1015.16 1015.66 1016.13 1016.55
1008.58 1008.51 1008.57 1008.73 1008.92 1009.07 1009.10 1008.98 1008.70 1008.29 1007.83 1007.37 1007.00 1006.75 1006.65 1006.67 1006.78 1006.94 1007.10 1007.25 1007.40 1007.57 1007.80 1008.10 1008.51 1009.01 1009.57 1010.16 1010.74 1011.26 1011.72 1012.11 1012.45 1012.76 1013.08 1013.44 1013.85 1014.31 1014.82 1015.35 1015.88 1016.39 1016.86
1008.52 1008.43 1008.49 1008.64 1008.83 1008.97 1009.00 1008.88 1008.61 1008.23 1007.80 1007.40 1007.09 1006.91 1006.86 1006.94 1007.09 1007.28 1007.47 1007.64 1007.80 1007.98 1008.20 1008.49 1008.88 1009.36 1009.91 1010.48 1011.03 1011.53 1011.97 1012.34 1012.65 1012.94 1013.24 1013.58 1013.97 1014.42 1014.93 1015.47 1016.02 1016.55 1017.05
1008.72 1008.57 1008.58 1008.69 1008.83 1008.92 1008.91 1008.76 1008.48 1008.12 1007.72 1007.37 1007.12 1007.00 1007.02 1007.16 1007.37 1007.61 1007.84 1008.04 1008.22 1008.42 1008.65 1008.94 1009.32 1009.78 1010.30 1010.85 1011.37 1011.85 1012.26 1012.59 1012.88 1013.14 1013.40 1013.71 1014.08 1014.51 1015.00 1015.53 1016.08 1016.63 1017.13
1009.23 1009.01 1008.93 1008.94 1008.99 1008.99 1008.90 1008.70 1008.39 1008.02 1007.65 1007.34 1007.14 1007.08 1007.16 1007.35 1007.61 1007.89 1008.16 1008.40 1008.61 1008.83 1009.08 1009.39 1009.77 1010.22 1010.73 1011.25 1011.75 1012.19 1012.57 1012.87 1013.12 1013.35 1013.58 1013.85 1014.19 1014.59 1015.06 1015.57 1016.11 1016.64 1017.14
1010.05 1009.73 1009.55 1009.44 1009.35 1009.23 1009.04 1008.75 1008.39 1008.00 1007.64 1007.36 1007.21 1007.19 1007.31 1007.54 1007.83 1008.13 1008.42 1008.68 1008.93 1009.17 1009.45 1009.78 1010.18 1010.64 1011.14 1011.65 1012.13 1012.55 1012.89 1013.17 1013.38 1013.57 1013.77 1014.01 1014.31 1014.69 1015.13 1015.62 1016.13 1016.65 1017.13
1011.10 1010.70 1010.40 1010.15 1009.92 1009.65 1009.33 1008.94 1008.52 1008.11 1007.74 1007.48 1007.35 1007.36 1007.50 1007.73 1008.02 1008.32 1008.61 1008.89 1009.15 1009.43 1009.74 1010.10 1010.53 1011.01 1011.52 1012.03 1012.49 1012.89 1013.21 1013.45 1013.63 1013.79 1013.96 1014.17 1014.45 1014.80 1015.21 1015.68 1016.18 1016.68 1017.15
1012.26 1011.80 1011.40 1011.02 1010.63 1010.21 1009.76 1009.27 1008.78 1008.33 1007.96 1007.71 1007.58 1007.60 1007.73 1007.94 1008.20 1008.47 1008.75 1009.02 1009.29 1009.59 1009.94 1010.34 1010.81 1011.32 1011.85 1012.36 1012.82 1013.20 1013.49 1013.70 1013.85 1013.98 1014.13 1014.32 1014.57 1014.91 1015.31 1015.77 1016.26 1016.75 1017.21
1013.40 1012.92 1012.44 1011.94 1011.41 1010.86 1010.28 1009.70 1009.15 1008.66 1008.28 1008.02 1007.89 1007.89 1007.98 1008.15 1008.37 1008.60 1008.84 1009.10 1009.38 1009.70 1010.08 1010.53 1011.04 1011.58 1012.13 1012.64 1013.08 1013.44 1013.70 1013.88 1014.00 1014.10 1014.23 1014.41 1014.65 1014.99 1015.39 1015.85 1016.35 1016.84 1017.30
1014.41 1013.93 1013.40 1012.82 1012.18 1011.51 1010.83 1010.17 1009.57 1009.05 1008.65 1008.38 1008.23 1008.20 1008.25 1008.37 1008.52 1008.71 1008.91 1009.15 1009.44 1009.79 1010.21 1010.70 1011.24 1011.81 1012.36 1012.86 1013.28 1013.60 1013.83 1013.97 1014.06 1014.14 1014.25 1014.42 1014.67 1015.01 1015.43 1015.90 1016.41 1016.91 1017.39
1015.22 1014.76 1014.21 1013.57 1012.87 1012.12 1011.37 1010.65 1010.01 1009.46 1009.04 1008.74 1008.57 1008.49 1008.49 1008.55 1008.66 1008.79 1008.98 1009.21 1009.51 1009.89 1010.34 1010.87 1011.43 1012.00 1012.55 1013.02 1013.41 1013.69 1013.87 1013.97 1014.03 1014.09 1014.19 1014.37 1014.62 1014.97 1015.40 1015.89 1016.41 1016.94 1017.43
1015.81 1015.39 1014.85 1014.19 1013.45 1012.66 1011.87 1011.11 1010.44 1009.87 1009.42 1009.09 1008.87 1008.74 1008.69 1008.70 1008.76 1008.87 1009.04 1009.28 1009.60 1010.01 1010.50 1011.05 1011.62 1012.19 1012.70 1013.14 1013.47 1013.70 1013.84 1013.91 1013.95 1014.00 1014.10 1014.28 1014.55 1014.91 1015.35 1015.85 1016.38 1016.91 1017.42
1016.22 1015.84 1015.33 1014.68 1013.94 1013.14 1012.34 1011.56 1010.87 1010.27 1009.78 1009.41 1009.14 1008.95 1008.85 1008.81 1008.83 1008.92 1009.10 1009.36 1009.72 1010.16 1010.67 1011.23 1011.80 1012.34 1012.82 1013.20 1013.49 1013.67 1013.77 1013.82 1013.85 1013.91 1014.03 1014.23 1014.51 1014.88 1015.32 1015.82 1016.34 1016.87 1017.37
1016.52 1016.18 1015.70 1015.09 1014.38 1013.60 1012.81 1012.04 1011.32 1010.69 1010.16 1009.73 1009.39 1009.14 1008.97 1008.89 1008.88 1008.97 1009.16 1009.45 1009.84 1010.31 1010.84 1011.40 1011.95 1012.46 1012.89 1013.23 1013.46 1013.61 1013.70 1013.76 1013.81 1013.91 1014.06 1014.28 1014.59 1014.96 1015.39 1015.86 1016.35 1016.85 1017.33
1016.77 1016.46 1016.03 1015.48 1014.82 1014.09 1013.33 1012.57 1011.85 1011.18 1010.59 1010.09 1009.67 1009.35 1009.11 1008.97 1008.94 1009.02 1009.22 1009.53 1009.94 1010.43 1010.97 1011.52 1012.05 1012.51 1012.90 1013.20 1013.41 1013.56 1013.66 1013.76 1013.87 1014.02 1014.23 1014.49 1014.82 1015.19 1015.60 1016.03 1016.47 1016.91 1017.34
1017.01 1016.75 1016.37 1015.88 1015.29 1014.63 1013.92 1013.18 1012.46 1011.76 1011.11 1010.53 1010.03 1009.61 1009.30 1009.10 1009.03 1009.09 1009.28 1009.60 1010.01 1010.51 1011.03 1011.56 1012.06 1012.49 1012.85 1013.12 1013.34 1013.51 1013.67 1013.83 1014.03 1014.27 1014.55 1014.87 1015.22 1015.58 1015.95 1016.32 1016.69 1017.05 1017.41
1017.28 1017.04 1016.72 1016.31 1015.80 1015.22 1014.57 1013.87 1013.15 1012.43 1011.73 1011.07 1010.48 1009.98 1009.58 1009.31 1009.18 1009.20 1009.36 1009.65 1010.05 1010.52 1011.02 1011.51 1011.97 1012.37 1012.71 1013.00 1013.24 1013.48 1013.71 1013.97 1014.27 1014.61 1014.97 1015.35 1015.72 1016.07 1016.40 1016.69 1016.97 1017.24 1017.52
1017.57 1017.36 1017.09 1016.75 1016.32 1015.82 1015.24 1014.59 1013.89 1013.16 1012.42 1011.70 1011.03 1010.44 1009.96 1009.61 1009.40 1009.35 1009.46 1009.70 1010.05 1010.46 1010.91 1011.36 1011.79 1012.17 1012.51 1012.82 1013.12 1013.43 1013.76 1014.13 1014.54 1014.97 1015.41 1015.83 1016.22 1016.55 1016.82 1017.04 1017.23 1017.41 1017.60
1017.84 1017.65 1017.42 1017.14 1016.80 1016.38 1015.87 1015.28 1014.62 1013.89 1013.14 1012.38 1011.65 1010.99 1010.43 1009.99 1009.70 1009.56 1009.58 1009.74 1010.00 1010.34 1010.73 1011.13 1011.52 1011.90 1012.26 1012.61 1012.97 1013.37 1013.80 1014.26 1014.76 1015.27 1015.76 1016.20 1016.58 1016.88 1017.09 1017.24 1017.35 1017.44 1017.56
1018.08 1017.89 1017.69 1017.46 1017.18 1016.82 1016.38 1015.86 1015.24 1014.55 1013.80 1013.04 1012.28 1011.57 1010.94 1010.42 1010.04 1009.80 1009.72 1009.77 1009.93 1010.18 1010.49 1010.84 1011.20 1011.58 1011.97 1012.37 1012.80 1013.27 1013.78 1014.32 1014.87 1015.42 1015.92 1016.36 1016.71 1016.96 1017.12 1017.20 1017.24 1017.28 1017.34
1018.26 1018.06 1017.87 1017.66 1017.41 1017.11 1016.73 1016.26 1015.71 1015.06 1014.35 1013.60 1012.84 1012.11 1011.44 1010.85 1010.39 1010.05 1009.85 1009.78 1009.83 1009.98 1010.21 1010.51 1010.86 1011.25 1011.67 1012.13 1012.62 1013.15 1013.70 1014.28 1014.84 1015.38 1015.86 1016.25 1016.55 1016.75 1016.85 1016.88 1016.89 1016.89 1016.94
Thickness
5805 5801 5789 5787 5784 5782 5780 5779 5777 5776 5775 5774 5773 5773 5772 5771 5771 5770 5770 5770 5769 5768 5767 5767 5766 5766 5766 5766 5766 5766 5765 5766 5766 5766 5766 5765 5764 5764 5763 5762 5761 5760 5757
5807 5799 5788 5786 5783 5781 5779 5777 5776 5774 5773 5772 5772 5771 5770 5770 5769 5769 5768 5768 5767 5766 5765 5765 5765 5764 5764 5764 5763 5763 5763 5764 5764 5764 5765 5764 5763 5762 5761 5760 5759 5759 5755
5806 5798 5789 5785 5782 5780 5778 5776 5774 5773 5772 5771 5770 5770 5769 5768 5768 5767 5767 5766 5765 5764 5764 5763 5763 5762 5762 5761 5761 5761 5761 5761 5762 5763 5764 5766 5764 5760 5759 5758 5757 5755 5753
5805 5798 5791 5783 5780 5778 5776 5774 5773 5771 5770 5769 5769 5768 5768 5767 5766 5766 5765 5765 5764 5763 5762 5762 5761 5760 5760 5759 5759 5759 5759 5759 5760 5761 5764 5765 5763 5758 5757 5755 5754 5752 5750
5804 5798 5788 5782 5779 5777 5775 5773 5771 5770 5769 5767 5767 5766 5766 5766 5765 5764 5764 5764 5763 5762 5761 5760 5759 5758 5758 5757 5757 5756 5757 5757 5758 5760 5763 5762 5760 5756 5754 5753 5752 5750 5748
5803 5797 5787 5781 5778 5775 5773 5771 5770 5768 5767 5766 5765 5765 5764 5764 5763 5763 5762 5762 5761 5760 5759 5758 5757 5756 5756 5755 5755 5754 5755 5756 5758 5760 5760 5759 5758 5753 5752 5750 5749 5748 5746
5801 5796 5787 5779 5776 5774 5772 5770 5768 5766 5765 5764 5763 5763 5762 5762 5761 5761 5760 5759 5758 5758 5757 5756 5755 5754 5754 5754 5753 5753 5754 5755 5758 5759 5758 5756 5754 5751 5749 5748 5746 5745 5744
5800 5795 5786 5778 5775 5772 5770 5768 5766 5765 5763 5762 5761 5761 5760 5760 5759 5759 5758 5757 5756 5756 5755 5754 5753 5752 5752 5752 5752 5752 5752 5753 5757 5758 5756 5754 5750 5748 5746 5745 5743 5743 5742
5798 5794 5788 5783 5776 5772 5769 5767 5765 5763 5762 5761 5760 5759 5758 5758 5757 5757 5756 5755 5754 5754 5753 5753 5752 5751 5750 5751 5750 5750 5750 5752 5755 5755 5754 5751 5747 5745 5744 5742 5741 5740 5740
5796 5792 5788 5784 5780 5776 5772 5766 5764 5762 5761 5759 5758 5758 5757 5757 5756 5755 5754 5753 5752 5752 5751 5751 5750 5749 5749 5749 5748 5748 5749 5750 5754 5753 5751 5748 5744 5742 5741 5740 5739 5738 5737
5791 5790 5787 5784 5780 5778 5775 5768 5765 5762 5760 5760 5759 5757 5758 5759 5758 5756 5754 5751 5750 5750 5749 5749 5748 5748 5748 5748 5747 5747 5748 5751 5752 5750 5747 5744 5742 5740 5738 5738 5737 5736 5735
5787 5788 5787 5784 5781 5778 5774 5770 5767 5766 5763 5762 5760 5759 5759 5758 5757 5756 5752 5750 5749 5749 5748 5748 5747 5748 5749 5750 5749 5748 5750 5750 5750 5748 5744 5741 5739 5738 5737 5736 5735 5734 5733
5789 5785 5785 5782 5779 5777 5774 5771 5768 5766 5763 5762 5759 5758 5757 5757 5756 5756 5755 5752 5751 5750 5750 5749 5749 5750 5750 5750 5750 5749 5749 5749 5748 5747 5743 5740 5737 5736 5735 5735 5734 5733 5732
5788 5784 5783 5780 5777 5774 5772 5770 5767 5765 5763 5762 5758 5757 5757 5756 5756 5755 5753 5753 5752 5751 5750 5750 5749 5748 5748 5748 5748 5748 5747 5747 5747 5745 5741 5738 5736 5735 5734 5734 5733 5732 5731
5786 5783 5781 5778 5774 5771 5768 5767 5766 5764 5763 5761 5758 5756 5756 5756 5754 5754 5751 5750 5750 5750 5750 5749 5749 5747 5746 5746 5746 5745 5745 5745 5745 5744 5741 5737 5735 5734 5733 5733 5732 5731 5730
5786 5782 5780 5776 5772 5769 5767 5765 5765 5764 5761 5761 5758 5756 5754 5754 5752 5751 5750 5748 5748 5747 5747 5747 5747 5746 5745 5744 5744 5743 5743 5743 5742 5742 5741 5738 5735 5734 5732 5731 5731 5730 5729
5785 5781 5777 5774 5771 5767 5766 5764 5764 5763 5761 5760 5757 5754 5752 5752 5750 5748 5749 5748 5747 5745 5745 5745 5744 5744 5743 5742 5741 5741 5741 5740 5740 5739 5739 5739 5737 5734 5731 5730 5729 5728 5727
5784 5779 5776 5774 5770 5766 5763 5762 5762 5761 5759 5758 5756 5754 5751 5749 5748 5747 5748 5747 5745 5745 5744 5743 5743 5742 5741 5740 5739 5739 5739 5737 5737 5737 5737 5736 5735 5734 5731 5729 5727 5726 5725
5783 5778 5774 5771 5768 5765 5762 5760 5759 5758 5756 5756 5755 5753 5750 5748 5747 5746 5746 5745 5744 5744 5743 5743 5742 5740 5737 5737 5737 5736 5736 5736 5735 5736 5735 5734 5733 5731 5730 5727 5726 5725 5724
5781 5776 5772 5769 5766 5763 5761 5758 5758 5756 5756 5754 5753 5750 5748 5747 5746 5745 5745 5742 5743 5742 5740 5739 5737 5735 5735 5735 5736 5735 5734 5735 5734 5733 5732 5731 5730 5729 5729 5728 5726 5725 5722
5778 5773 5770 5767 5763 5761 5759 5757 5755 5754 5753 5752 5751 5748 5747 5746 5744 5743 5744 5741 5741 5740 5737 5737 5736 5734 5733 5733 5733 5731 5732 5733 5732 5731 5730 5730 5729 5728 5726 5725 5725 5724 5723
5775 5771 5768 5764 5762 5759 5758 5756 5754 5752 5752 5751 5749 5746 5745 5744 5743 5743 5740 5740 5739 5737 5735 5734 5733 5732 5732 5732 5730 5729 5727 5727 5727 5729 5728 5727 5726 5726 5725 5724 5722 5721 5722
5775 5771 5769 5764 5761 5758 5756 5754 5752 5750 5749 5748 5746 5745 5743 5742 5741 5740 5739 5738 5737 5737 5735 5732 5731 5730 5729 5730 5730 5729 5724 5722 5723 5725 5724 5724 5723 5722 5722 5721 5720 5719 5719
5776 5773 5768 5763 5760 5757 5754 5752 5749 5746 5745 5744 5744 5743 5742 5740 5739 5738 5737 5736 5735 5736 5733 5733 5732 5730 5727 5727 5728 5727 5726 5724 5720 5719 5720 5721 5720 5718 5718 5719 5719 5717 5716
5777 5773 5768 5763 5759 5755 5752 5750 5747 5746 5745 5745 5743 5741 5740 5739 5738 5737 5736 5735 5734 5734 5732 5731 5730 5729 5728 5726 5726 5725 5723 5722 5721 5718 5715 5716 5717 5717 5716 5715 5715 5715 5714
5775 5771 5767 5762 5757 5754 5751 5749 5745 5744 5743 5741 5740 5739 5738 5738 5737 5736 5736 5734 5733 5732 5730 5729 5728 5727 5725 5723 5724 5724 5722 5721 5719 5718 5715 5713 5713 5713 5713 5713 5713 5713 5711